Grand Etang, Nova Scotia

1:15 AM ADT on May 26, 2017 (GMT -0300)
Grand Etang

Weather History for CWZQ - October, 2012

Change the Weather History Date:

Thursday, October 25, 2012

  Actual Average Record
Temperature  
Mean Temperature 42 °F -  
Max Temperature 45 °F - - ()
Min Temperature 41 °F - - ()
Degree Days  
Heating Degree Days 22    
Moisture  
Dew Point 37 °F    
Average Humidity 80    
Maximum Humidity 85    
Minimum Humidity 77    
Precipitation  
Precipitation 0.00 in - - ()
Sea Level Pressure  
Sea Level Pressure 30.12 in    
Wind  
Wind Speed 23 mph ()    
Max Wind Speed 26 mph    
Max Gust Speed 34 mph    
T = Trace of Precipitation, MM = Missing Value Source: Averaged Metar Reports

Daily Weather History Graph

Daily Weather History Graph

Search for Another Location

Airport or City:

Trip Planner

Search our weather history database for the weather conditions in past years. The results will help you decide how hot, cold, wet, or windy it might be!

Date:

Astronomy

Oct. 25, 2012 Rise Set
Actual Time 7:36 AM ADT 5:59 PM ADT
Civil Twilight 7:05 AM ADT 6:30 PM ADT
Nautical Twilight 6:30 AM ADT 7:05 PM ADT
Astronomical Twilight 5:55 AM ADT 7:40 PM ADT
Moon 3:54 PM ADT (10/25) 3:14 AM ADT (10/25)
Length of Visible Light 11h 24m
Length of Day
10h 22m
Waxing Gibbous, 84% of the Moon is Illuminated
Oct 25
Waxing Gibbous
Oct 29
Full
Nov 6
Last Quarter
Nov 13
New
Nov 20
First Quarter

Hourly Weather History & Observations

Time (ADT) Temp. Windchill Dew Point Humidity Pressure Visibility Wind Dir Wind Speed Gust Speed Precip Events Conditions
12:00 AM 42.1 °F 31.9 °F 36.7 °F 81% 30.02 in - NW 26.5 mph 32.2 mph N/A   Unknown
12:20 AM 42.1 °F 32.1 °F 37.6 °F 84% - - NW 25.3 mph 32.2 mph N/A   Unknown
12:40 AM 41.9 °F 31.9 °F 36.7 °F 82% - - NW 25.3 mph - N/A   Unknown
1:00 AM 42.3 °F 32.2 °F 36.7 °F 81% 30.03 in - NW 26.5 mph - N/A   Unknown
1:20 AM 42.1 °F 32.3 °F 36.1 °F 79% - - NNW 24.2 mph - N/A   Unknown
1:40 AM 42.4 °F 32.6 °F 36.9 °F 81% - - NW 25.3 mph 31.1 mph N/A   Unknown
2:00 AM 42.1 °F 32.1 °F 36.3 °F 80% 30.04 in - NNW 25.3 mph - N/A   Unknown
2:20 AM 42.6 °F 33.5 °F 37.2 °F 81% - - NNW 21.9 mph 27.6 mph N/A   Unknown
2:40 AM 42.6 °F 33.8 °F 36.5 °F 79% - - NNW 20.7 mph 26.5 mph N/A   Unknown
3:00 AM 42.8 °F 33.3 °F 37.2 °F 81% 30.06 in - NNW 24.2 mph - N/A   Unknown
3:20 AM 42.4 °F 32.8 °F 37.2 °F 82% - - NW 24.2 mph 29.9 mph N/A   Unknown
3:40 AM 43.0 °F 33.5 °F 37.0 °F 80% - - NW 24.2 mph - N/A   Unknown
4:00 AM 42.6 °F 33.1 °F 36.5 °F 79% 30.07 in - NW 24.2 mph - N/A   Unknown
4:20 AM 42.8 °F 33.1 °F 37.6 °F 82% - - NW 25.3 mph - N/A   Unknown
4:40 AM 42.4 °F 32.6 °F 37.2 °F 82% - - NW 25.3 mph 31.1 mph N/A   Unknown
5:00 AM 42.6 °F 32.8 °F 37.2 °F 81% 30.08 in - NW 25.3 mph 32.2 mph N/A   Unknown
5:20 AM 42.8 °F 32.9 °F 36.9 °F 80% - - NW 26.5 mph - N/A   Unknown
5:40 AM 43.0 °F 33.3 °F 36.5 °F 78% - - NW 25.3 mph - N/A   Unknown
6:00 AM 42.8 °F 32.9 °F 36.1 °F 77% 30.09 in - NNW 26.5 mph - N/A   Unknown
6:20 AM 43.0 °F 33.8 °F 36.3 °F 77% - - NNW 23.0 mph - N/A   Unknown
6:40 AM 42.6 °F 33.1 °F 37.0 °F 81% - - NNW 24.2 mph 29.9 mph N/A   Unknown
7:00 AM 42.1 °F 32.1 °F 35.6 °F 78% 30.10 in - NNW 25.3 mph - N/A   Unknown
7:40 AM 42.1 °F 32.6 °F 35.4 °F 77% - - NNW 23.0 mph - N/A   Unknown
8:00 AM 42.1 °F 32.3 °F 36.5 °F 81% 30.12 in - NNW 24.2 mph - N/A   Unknown
8:20 AM 42.1 °F 32.3 °F 37.0 °F 82% - - NNW 24.2 mph 31.1 mph N/A   Unknown
8:40 AM 42.1 °F 32.8 °F 36.5 °F 81% - - NNW 21.9 mph - N/A   Unknown
9:00 AM 41.9 °F 32.1 °F 37.0 °F 83% 30.15 in - NNW 24.2 mph - N/A   Unknown
9:20 AM 42.3 °F 32.6 °F 37.8 °F 84% - - NW 24.2 mph 31.1 mph N/A   Unknown
9:40 AM 42.1 °F 32.6 °F 36.9 °F 82% - - NW 23.0 mph 29.9 mph N/A   Unknown
10:00 AM 41.9 °F 31.9 °F 37.4 °F 84% 30.18 in - NNW 25.3 mph - N/A   Unknown
10:20 AM 41.9 °F 32.3 °F 37.4 °F 84% - - NW 23.0 mph 29.9 mph N/A   Unknown
10:40 AM 42.3 °F 33.1 °F 37.2 °F 82% - - NNW 21.9 mph - N/A   Unknown
11:00 AM 42.4 °F 32.6 °F 37.8 °F 83% 30.18 in - NNW 25.3 mph 32.2 mph N/A   Unknown
11:20 AM 42.1 °F 32.6 °F 37.9 °F 85% - - NNW 23.0 mph 28.8 mph N/A   Unknown
11:40 AM 42.6 °F 33.3 °F 38.1 °F 84% - - NNW 23.0 mph 29.9 mph N/A   Unknown
12:00 PM 42.6 °F 32.8 °F 37.6 °F 82% 30.16 in - NNW 25.3 mph - N/A   Unknown
12:20 PM 42.4 °F 33.5 °F 36.3 °F 79% - - North 20.7 mph - N/A   Unknown
12:40 PM 42.3 °F 33.1 °F 36.3 °F 79% - - NNW 21.9 mph 32.2 mph N/A   Unknown
1:00 PM 42.1 °F 32.3 °F 36.1 °F 79% 30.14 in - NNW 24.2 mph 29.9 mph N/A   Unknown
1:20 PM 42.4 °F 33.3 °F 36.9 °F 81% - - NNW 21.9 mph - N/A   Unknown
1:40 PM 42.8 °F 33.8 °F 37.0 °F 80% - - NNW 21.9 mph - N/A   Unknown
2:00 PM 42.3 °F 32.8 °F 36.9 °F 81% 30.13 in - NNW 23.0 mph - N/A   Unknown
2:20 PM 41.9 °F 32.3 °F 36.1 °F 80% - - NNW 23.0 mph 29.9 mph N/A   Unknown
2:40 PM 42.3 °F 33.1 °F 36.5 °F 80% - - NNW 21.9 mph - N/A   Unknown
3:00 PM 42.4 °F 33.1 °F 36.1 °F 78% 30.13 in - NNW 23.0 mph - N/A   Unknown
3:20 PM 42.1 °F 32.8 °F 36.1 °F 79% - - NNW 21.9 mph 28.8 mph N/A   Unknown
3:40 PM 42.4 °F 32.8 °F 36.5 °F 79% - - NNW 24.2 mph 32.2 mph N/A   Unknown
4:00 PM 42.6 °F 33.1 °F 37.0 °F 81% 30.13 in - NNW 24.2 mph - N/A   Unknown
4:20 PM 42.3 °F 33.3 °F 36.7 °F 81% - - NNW 20.7 mph - N/A   Unknown
4:40 PM 42.4 °F 33.3 °F 36.9 °F 81% - - NNW 21.9 mph 27.6 mph N/A   Unknown
5:00 PM 42.4 °F 32.8 °F 36.7 °F 80% 30.13 in - NNW 24.2 mph 29.9 mph N/A   Unknown
5:20 PM 42.6 °F 33.5 °F 36.5 °F 79% - - NNW 21.9 mph 29.9 mph N/A   Unknown
5:40 PM 42.8 °F 33.1 °F 37.0 °F 80% - - NNW 25.3 mph 34.5 mph N/A   Unknown
6:00 PM 43.0 °F 33.3 °F 37.2 °F 80% 30.15 in - NNW 25.3 mph 32.2 mph N/A   Unknown
6:20 PM 43.3 °F 33.8 °F 37.9 °F 81% - - NNW 25.3 mph 32.2 mph N/A   Unknown
6:40 PM 43.0 °F 33.3 °F 37.2 °F 80% - - NNW 25.3 mph 31.1 mph N/A   Unknown
7:00 PM 43.2 °F 33.6 °F 37.9 °F 82% 30.15 in - NNW 25.3 mph 31.1 mph N/A   Unknown
7:20 PM 43.2 °F 33.6 °F 36.9 °F 78% - - NNW 25.3 mph - N/A   Unknown
7:40 PM 43.7 °F 34.3 °F 37.8 °F 80% - - NNW 25.3 mph 32.2 mph N/A   Unknown
8:00 PM 43.3 °F 33.6 °F 37.0 °F 78% 30.17 in - North 26.5 mph 33.4 mph N/A   Unknown
8:20 PM 43.3 °F 34.0 °F 37.0 °F 78% - - NNW 24.2 mph - N/A   Unknown
8:40 PM 43.9 °F 35.0 °F 37.8 °F 79% - - NNW 23.0 mph - N/A   Unknown
9:00 PM 43.7 °F 34.3 °F 37.2 °F 78% 30.16 in - NNW 25.3 mph 34.5 mph N/A   Unknown
9:20 PM 43.9 °F 35.0 °F 38.1 °F 80% - - NNW 23.0 mph 28.8 mph N/A   Unknown
9:40 PM 44.1 °F 34.8 °F 38.3 °F 80% - - NNW 25.3 mph 33.4 mph N/A   Unknown
10:00 PM 44.4 °F 35.3 °F 38.8 °F 81% 30.16 in - NNW 25.3 mph - N/A   Unknown
10:20 PM 44.6 °F 36.6 °F 38.3 °F 79% - - North 19.6 mph - N/A   Unknown
10:40 PM 44.4 °F 36.6 °F 38.1 °F 79% - - North 18.4 mph - N/A   Unknown
11:20 PM 44.4 °F 36.1 °F 38.1 °F 79% - - North 20.7 mph - N/A   Unknown
11:40 PM 45.0 °F 36.4 °F 38.7 °F 79% - - NNW 23.0 mph - N/A   Unknown